(167030) = 2003 QN39

Discovered at Socorro on 2003-08-22 by LINEAR.

Orbit

Orbit type: Main Belt

Note: WebGL enabled browser required.

epoch2024-03-31.0
epoch JD2460400.5
perihelion date2023-01-06.50211
perihelion JD2459951.00211
argument of perihelion (°)83.68384
ascending node (°)245.50064
inclination (°)0.98468
eccentricity0.1548956
perihelion distance (AU)2.0891509
Tisserand w.r.t. Jupiter3.5
ΔV w.r.t. Earth (km/sec)9.0
semimajor axis (AU)2.4720626
mean anomaly (°)113.98359
mean daily motion (°/day)0.25357980
aphelion distance (AU)2.855
period (years)3.89
P-vector [x]0.85868763
P-vector [y]-0.47674202
P-vector [z]-0.18807605
Q-vector [x]0.51226069
Q-vector [y]0.78720718
Q-vector [z]0.34335672
absolute magnitude16.47
phase slope0.15
uncertainty0
referenceMPEC 2024-E152
observations used699
oppositions16
arc length (days)7506
first opposition used2003
last opposition used2024
residual rms (arc-secs)0.73
perturbers coarse indicatorM-v
perturbers precise indicator003Ek
first observation date used2003-08-22.0
last observation date used2024-03-10.0
computer nameMPCLINUX
JD of orbit computation2456847.713277
perihelion JD uncertainty (days)6.4890E-05
argument of perihelion uncertainty (°)2.4311E-04
ascending node uncertainty (°)2.4264E-04
inclination uncertainty (°)3.8508E-06
eccentricity uncertainty 3.5429E-08
perihelion distance uncertainty (AU)9.0541E-08
Minimum Orbit Intersection Distances (in AU)
for orbit epoch: 2460400.5, reference: E2024-EF2
Mercury1.68
Venus1.36417
Earth1.07808
Mars0.71096
Jupiter2.46603
Saturn6.31107
Uranus15.5964
Neptune27.3643

Observations

727 total observations over interval: 2003 08 22.26909 – 2024 03 10.54828
These data are available for download (format description).

Date (UT) J2000 RA J2000 Dec Magn Location Ref
2003 08 22.26909 23 07 16.34 -03 38 50.3 18.7   704 – Lincoln Laboratory ETS, New Mexico MPS 83490
2003 08 22.26917 23 07 16.26 -03 38 49.9 18.6   704 – Lincoln Laboratory ETS, New Mexico MPS 83490
2003 08 22.28152 23 07 15.75 -03 38 53.0 19.0   704 – Lincoln Laboratory ETS, New Mexico MPS 83490
2003 08 22.28161 23 07 15.71 -03 38 53.3 18.8   704 – Lincoln Laboratory ETS, New Mexico MPS 83490
2003 08 22.29411 23 07 15.20 -03 38 56.7 18.7   704 – Lincoln Laboratory ETS, New Mexico MPS 83490
2003 08 22.29420 23 07 15.11 -03 38 55.5 19.1   704 – Lincoln Laboratory ETS, New Mexico MPS 83490
2003 08 22.30668 23 07 14.60 -03 38 59.5 18.5   704 – Lincoln Laboratory ETS, New Mexico MPS 83490
2003 08 22.30678 23 07 14.56 -03 38 58.9 18.3   704 – Lincoln Laboratory ETS, New Mexico MPS 83490
2003 08 25.27427 23 05 03.80 -03 51 53.8 19.0   704 – Lincoln Laboratory ETS, New Mexico MPS 83490
2003 08 25.28712 23 05 03.19 -03 51 57.6 19.6   704 – Lincoln Laboratory ETS, New Mexico MPS 83490
2003 08 25.29966 23 05 02.45 -03 52 02.5 19.4   704 – Lincoln Laboratory ETS, New Mexico MPS 83490
2003 08 25.31219 23 05 01.90 -03 52 03.9 19.7   704 – Lincoln Laboratory ETS, New Mexico MPS 83490
2003 08 25.32464 23 05 01.42 -03 52 08.5 19.4   704 – Lincoln Laboratory ETS, New Mexico MPS 83490
2003 08 28.28187 23 02 43.25 -04 06 04.5 18.2   644 – Palomar Mountain/NEAT MPS 83490
2003 08 28.35037 23 02 39.78 -04 06 24.6 18.3   644 – Palomar Mountain/NEAT MPS 83490
2003 08 28.42122 23 02 36.20 -04 06 45.2 18.3   644 – Palomar Mountain/NEAT MPS 83490
2003 08 28.55888 23 02 29.52 -04 07 25.1 19.9   608 – Haleakala-AMOS MPS 83490
2003 08 28.56927 23 02 28.98 -04 07 27.6 20.0   608 – Haleakala-AMOS MPS 83490
2003 08 28.58006 23 02 28.45 -04 07 30.5 19.2   608 – Haleakala-AMOS MPS 83490
2003 08 29.26485 23 01 55.88 -04 10 53.9 18.0   704 – Lincoln Laboratory ETS, New Mexico MPS 83490
2003 08 29.29117 23 01 54.52 -04 11 01.8 18.1   704 – Lincoln Laboratory ETS, New Mexico MPS 83490
2003 08 29.30500 23 01 53.83 -04 11 05.5 18.4   704 – Lincoln Laboratory ETS, New Mexico MPS 83490
2003 09 02.25153 22 58 39.00 -04 31 11.0 19.0   704 – Lincoln Laboratory ETS, New Mexico MPS 84103
2003 09 02.26328 22 58 38.41 -04 31 14.9 19.0   704 – Lincoln Laboratory ETS, New Mexico MPS 84103
2003 09 02.27520 22 58 37.75 -04 31 18.5 19.0   704 – Lincoln Laboratory ETS, New Mexico MPS 84103
2003 09 02.28688 22 58 37.15 -04 31 22.0 19.4   704 – Lincoln Laboratory ETS, New Mexico MPS 84103
2003 09 02.29854 22 58 36.55 -04 31 25.8 19.1   704 – Lincoln Laboratory ETS, New Mexico MPS 84103
2003 09 16.24353 22 47 13.28 -05 44 43.9 19.1 V 291 – LPL/Spacewatch II MPS 84568
2003 09 16.26703 22 47 12.16 -05 44 50.8 19.3 V 291 – LPL/Spacewatch II MPS 84568
2003 09 16.29032 22 47 11.03 -05 44 57.8 18.9 V 291 – LPL/Spacewatch II MPS 84568
2003 09 17.53937 22 46 14.74 -05 51 11.9 20.4   608 – Haleakala-AMOS MPS 84568
2003 09 17.55022 22 46 14.24 -05 51 15.0 20.7   608 – Haleakala-AMOS MPS 84568
2003 09 17.56106 22 46 13.75 -05 51 18.2 20.1   608 – Haleakala-AMOS MPS 84568
2003 09 18.23403 22 45 44.77 -05 54 37.7 18.4   704 – Lincoln Laboratory ETS, New Mexico MPS 84568
2003 09 18.24583 22 45 44.23 -05 54 41.8 18.9   704 – Lincoln Laboratory ETS, New Mexico MPS 84568
2003 09 18.25752 22 45 43.68 -05 54 45.1 18.8   704 – Lincoln Laboratory ETS, New Mexico MPS 84568
2003 09 18.26915 22 45 43.14 -05 54 48.5 18.7   704 – Lincoln Laboratory ETS, New Mexico MPS 84568
2003 09 18.28079 22 45 42.63 -05 54 51.4 18.9   704 – Lincoln Laboratory ETS, New Mexico MPS 84568
2003 09 24.24559 22 41 44.21 -06 22 13.1 18.4   644 – Palomar Mountain/NEAT MPS 85265
2003 09 24.26661 22 41 43.40 -06 22 18.2 18.5   644 – Palomar Mountain/NEAT MPS 85265
2003 09 24.28744 22 41 42.59 -06 22 23.6 18.8   644 – Palomar Mountain/NEAT MPS 85265
2003 09 26.18173 22 40 36.91 -06 30 12.6 18.7   704 – Lincoln Laboratory ETS, New Mexico MPS 85265
2003 09 26.19431 22 40 36.46 -06 30 15.4 19.1   704 – Lincoln Laboratory ETS, New Mexico MPS 85265
2003 09 26.21950 22 40 35.56 -06 30 21.3 18.6   704 – Lincoln Laboratory ETS, New Mexico MPS 85265
2003 10 01.10131 22 38 12.00 -06 48 08.4 18.7 R 699 – Lowell Observatory-LONEOS MPS 86946
2003 10 01.11807 22 38 11.63 -06 48 11.1   699 – Lowell Observatory-LONEOS MPS 86946
2003 10 01.13476 22 38 11.16 -06 48 14.9   699 – Lowell Observatory-LONEOS MPS 86946
2003 10 01.15144 22 38 10.73 -06 48 18.9   699 – Lowell Observatory-LONEOS MPS 86946
2004 12 15.07506 08 21 01.43 +18 29 50.5 20.1 R 599 – Campo Imperatore-CINEOS MPS 123334
2004 12 15.08497 08 21 01.02 +18 29 51.3 19.9 R 599 – Campo Imperatore-CINEOS MPS 123334
2004 12 18.37743 08 19 07.58 +18 34 37.3 18.5 R G96 – Mt. Lemmon Survey MPS 123334
2004 12 18.38789 08 19 07.06 +18 34 36.3 19.2 R G96 – Mt. Lemmon Survey MPS 123334
2004 12 18.39838 08 19 06.63 +18 34 37.4 20.3 R G96 – Mt. Lemmon Survey MPS 123334
2004 12 18.40890 08 19 06.20 +18 34 39.2 18.7 R G96 – Mt. Lemmon Survey MPS 123334
2004 12 19.39792 08 18 28.70 +18 36 14.5 19.8 R G96 – Mt. Lemmon Survey MPS 123334
2004 12 19.41154 08 18 28.18 +18 36 15.8 19.6 R G96 – Mt. Lemmon Survey MPS 123334
2004 12 19.42514 08 18 27.62 +18 36 16.8 20.3 R G96 – Mt. Lemmon Survey MPS 123334
2004 12 19.43878 08 18 27.06 +18 36 18.4 20.0 R G96 – Mt. Lemmon Survey MPS 123334
2005 01 13.23410 07 56 19.12 +19 34 27.4 20.2 V 691 – Steward Observatory, Kitt Peak-Spacewatch MPS 124083
2005 01 13.25958 07 56 17.48 +19 34 31.5 20.1 V 691 – Steward Observatory, Kitt Peak-Spacewatch MPS 124083
2005 01 13.28551 07 56 15.80 +19 34 35.8 20.4 V 691 – Steward Observatory, Kitt Peak-Spacewatch MPS 124083
2006 03 26.34565 13 48 48.31 -12 21 06.6 20.2 V G96 – Mt. Lemmon Survey MPS 167038
2006 03 26.35501 13 48 47.91 -12 21 04.2 20.4 V G96 – Mt. Lemmon Survey MPS 167038
2006 03 26.36423 13 48 47.52 -12 21 02.3 20.1 V G96 – Mt. Lemmon Survey MPS 167038
2006 03 26.37357 13 48 47.12 -12 20 59.9 20.1 V G96 – Mt. Lemmon Survey MPS 167038
2006 05 23.15569 13 04 53.00 -07 44 05.7 20.3 V G96 – Mt. Lemmon Survey MPS 171990
2006 05 23.16071 13 04 52.89 -07 44 04.7 20.2 V G96 – Mt. Lemmon Survey MPS 171990
2006 05 23.16576 13 04 52.82 -07 44 03.6 20.3 V G96 – Mt. Lemmon Survey MPS 171990
2006 05 23.17088 13 04 52.68 -07 44 03.0 20.2 V G96 – Mt. Lemmon Survey MPS 171990
2007 09 04.33399 00 31 43.91 +05 12 56.2 20.5 R 683 – Goodricke-Pigott Observatory, Tucson MPS 214410
2007 09 04.34740 00 31 43.54 +05 12 53.4 20.0 R 683 – Goodricke-Pigott Observatory, Tucson MPS 214410
2007 09 04.36079 00 31 43.15 +05 12 51.7 20.9 R 683 – Goodricke-Pigott Observatory, Tucson MPS 214410
2007 09 08.39942 00 29 16.27 +04 57 44.8 18.8 R 699 – Lowell Observatory-LONEOS MPS 215076
2007 09 08.42134 00 29 15.32 +04 57 40.6   699 – Lowell Observatory-LONEOS MPS 215076
2007 09 08.44322 00 29 14.48 +04 57 34.3   699 – Lowell Observatory-LONEOS MPS 215076
2007 09 08.46512 00 29 13.58 +04 57 29.5   699 – Lowell Observatory-LONEOS MPS 215076
2007 09 12.30855 00 26 33.86 +04 40 33.6 19.8 R 683 – Goodricke-Pigott Observatory, Tucson MPS 215076
2007 09 12.32196 00 26 33.28 +04 40 30.7 19.9 R 683 – Goodricke-Pigott Observatory, Tucson MPS 215076
2007 09 12.33763 00 26 32.58 +04 40 25.1 19.3 V 691 – Steward Observatory, Kitt Peak-Spacewatch MPS 215076
2007 09 12.36210 00 26 31.45 +04 40 19.2 19.0 V 691 – Steward Observatory, Kitt Peak-Spacewatch MPS 215076
2007 09 12.38658 00 26 30.29 +04 40 11.2 19.0 V 691 – Steward Observatory, Kitt Peak-Spacewatch MPS 215076
2007 09 13.23613 00 25 53.00 +04 36 08.7 19.2   704 – Lincoln Laboratory ETS, New Mexico MPS 216125
2007 09 13.25932 00 25 51.80 +04 36 02.5 19.1   704 – Lincoln Laboratory ETS, New Mexico MPS 216125
2007 09 13.27089 00 25 51.36 +04 35 59.2 19.3   704 – Lincoln Laboratory ETS, New Mexico MPS 216125
2007 09 13.28249 00 25 50.80 +04 35 55.6 19.1   704 – Lincoln Laboratory ETS, New Mexico MPS 216125
2007 09 13.30247 00 25 49.80 +04 35 48.8 19.1 V 703 – Catalina Sky Survey MPS 215076
2007 09 13.31005 00 25 49.44 +04 35 46.8 19.1 V 703 – Catalina Sky Survey MPS 215076
2007 09 13.31762 00 25 49.04 +04 35 44.8 18.9 V 703 – Catalina Sky Survey MPS 215076
2007 09 13.32522 00 25 48.72 +04 35 42.5 18.9 V 703 – Catalina Sky Survey MPS 215076
